< < Back
Terminal Aerodrome Forecast


Current Version              Previous Versions:   1  2  3  4  5  6  7  8  9  

Terminal Aerodrome Forecast

979
FTUS44 KMOB 261732
TAFPNS
TAF
KPNS 261732Z 2618/2718 19013KT P6SM VCTS BKN023CB
      TEMPO 2618/2622 VRB20KT 2SM TSRA BKN025CB
     FM270000 21015KT 4SM BR VCSH OVC025
     FM270600 19008KT P6SM VCSH OVC050
      TEMPO 2712/2716 4SM SHRA OVC030=



Latest METAR

246
SAUS70 KWBC 270200
MTRPNS
METAR KPNS 270153Z 22008KT 10SM FEW025 SCT035 BKN080 27/23 A3001 RMK AO2
RAE07 SLP161 P0000 T02670233


USA.gov is the U.S. government's official web portal to all federal, state and local government web resources and services.